Location: Boursonne
(49.2024°N, 3.0468°E)
Time: 23:18:45
(UTC+00:00)

MOS 1 - Pass Details

Date: 03 March 2021
Orbit: 878 x 892 km, 99.1° (Epoch: 14 April)

Event Time Altitude Azimuth Distance (km) Brightness Sun altitude
Exits shadow 19:26:04 20° 149° (SSE) 1,948 5.7 -19.0°
Maximum altitude 19:30:06 69° 70° (ENE) 951 4.2 -19.6°
Drops below altitude 10° 19:35:45 10° 349° (N) 2,559 7.0 -20.5°
Sets 19:38:10 0° 347° (NNW) 3,500 7.8 -20.9°
